This is the latest recevied weather packets stored in our database for station/object AA6HF. If no packets are shown the sender has not sent any weather packets the latest 10 day(s).
| Time | Temp. | Humidity | Pressure | Rain* | Wind** | Luminosity | Snow |
|---|---|---|---|---|---|---|---|
| 1777421767 | 27.78° C | 17% | 1010.9 hPa | 0 mm | - | - | - |
| 1777421467 | 27.78° C | 17% | 1010.9 hPa | 0 mm | - | - | - |
| 1777421167 | 28.33° C | 17% | 1010.9 hPa | 0 mm | - | - | - |
| 1777420867 | 28.33° C | 17% | 1010.8 hPa | 0 mm | - | - | - |
| 1777420567 | 28.33° C | 17% | 1010.9 hPa | 0 mm | - | - | - |
| 1777420267 | 28.33° C | 16% | 1010.9 hPa | 0 mm | - | - | - |
| 1777419967 | 28.33° C | 16% | 1011.1 hPa | 0 mm | - | - | - |
| 1777419667 | 28.33° C | 16% | 1011.2 hPa | 0 mm | - | - | - |
| 1777419367 | 28.33° C | 16% | 1011.2 hPa | 0 mm | - | - | - |
| 1777419067 | 28.33° C | 16% | 1011.1 hPa | 0 mm | - | - | - |
| 1777418767 | 28.89° C | 16% | 1011.2 hPa | 0 mm | - | - | - |
| 1777418467 | 29.44° C | 15% | 1011.2 hPa | 0 mm | - | - | - |
| 1777418167 | 29.44° C | 15% | 1011.3 hPa | 0 mm | - | - | - |
| 1777417867 | 28.89° C | 16% | 1011.3 hPa | 0 mm | - | - | - |
| 1777417567 | 28.89° C | 16% | 1011.3 hPa | 0 mm | - | - | - |
| 1777417267 | 28.89° C | 15% | 1011.2 hPa | 0 mm | - | - | - |
| 1777416968 | 29.44° C | 15% | 1011.3 hPa | 0 mm | - | - | - |
| 1777416667 | 29.44° C | 16% | 1011.3 hPa | 0 mm | - | - | - |
| 1777416367 | 29.44° C | 15% | 1011.4 hPa | 0 mm | - | - | - |
| 1777416068 | 29.44° C | 16% | 1011.4 hPa | 0 mm | - | - | - |
| 1777415767 | 29.44° C | 16% | 1011.5 hPa | 0 mm | - | - | - |
| 1777415468 | 28.89° C | 16% | 1011.6 hPa | 0 mm | - | - | - |
| 1777415168 | 29.44° C | 15% | 1011.7 hPa | 0 mm | - | - | - |
| 1777414868 | 30° C | 15% | 1011.6 hPa | 0 mm | - | - | - |
| 1777414568 | 30° C | 15% | 1011.7 hPa | 0 mm | - | - | - |
* Rain latest hour (hover to see other rain measurements)
** Current wind speed in m/s (hover to see current wind gust speed)